Location: Poughquag
(41.6090°N, 73.6820°W)
Time: 14:58:53
(UTC-04:00)

Explorer 11/Cluster Stage 4 - Pass Details

Date: 31 May 2020
Orbit: 467 x 1259 km, 28.8° (Epoch: 05 July)

Event Time Altitude Azimuth Distance (km) Brightness Sun altitude
Rises 08:43:12 0° 247° (WSW) 3,763 9.6 34.8°
Reaches altitude 10° 08:46:05 10° 238° (WSW) 2,922 9.2 35.4°
Maximum altitude 08:52:24 31° 179° (S) 1,942 8.9 36.5°
Drops below altitude 10° 08:59:19 10° 121° (ESE) 3,217 10.7 37.8°
Sets 09:02:39 0° 112° (ESE) 4,198 11.1 38.4°
